| time (UTC) | temp F | wind direction | speed knots | gust knots | rain 1hr in | rain 24hr in | rain mn in | humidity % | barometer mb |
| 20260505022350 | 67 | 113 | 7.0 | 7.8 | 0.00 | 0.00 | 0.00 | 54 | 1015.5 |
| 20260505021848 | 67 | 115 | 4.3 | 7.8 | 0.00 | 0.00 | 0.00 | 53 | 1015.3 |
| 20260505021344 | 67 | 80 | 3.5 | 6.1 | 0.00 | 0.00 | 0.00 | 52 | 1015.3 |
| 20260505020840 | 68 | 131 | 7.0 | 8.7 | 0.00 | 0.00 | 0.00 | 51 | 1015.3 |
| 20260505020336 | 68 | 82 | 3.5 | 8.7 | 0.00 | 0.00 | 0.00 | 50 | 1015.3 |
| 20260505015833 | 68 | 111 | 3.5 | 8.7 | 0.00 | 0.00 | 0.00 | 49 | 1015.1 |
| 20260505015330 | 68 | 109 | 3.5 | 5.2 | 0.00 | 0.00 | 0.00 | 45 | 1015.0 |
| 20260505014827 | 68 | 73 | 5.2 | 7.0 | 0.00 | 0.00 | 0.00 | 45 | 1015.1 |
| 20260505014324 | 68 | 86 | 2.6 | 5.2 | 0.00 | 0.00 | 0.00 | 45 | 1015.2 |
| 20260505013820 | 67 | 92 | 2.6 | 4.3 | 0.00 | 0.00 | 0.00 | 45 | 1014.9 |
| 20260505013318 | 68 | 95 | 1.7 | 5.2 | 0.00 | 0.00 | 0.00 | 45 | 1014.8 |
| 20260505012816 | 68 | 110 | 2.6 | 5.2 | 0.00 | 0.00 | 0.00 | 45 | 1014.7 |
| 20260505012314 | 68 | 86 | 1.7 | 3.5 | 0.00 | 0.00 | 0.00 | 45 | 1014.8 |
| 20260505011809 | 68 | 83 | 2.6 | 3.5 | 0.00 | 0.00 | 0.00 | 45 | 1014.7 |
| 20260505011306 | 68 | 97 | 2.6 | 6.1 | 0.00 | 0.00 | 0.00 | 44 | 1014.7 |
| 20260505010802 | 67 | 109 | 1.7 | 3.5 | 0.00 | 0.00 | 0.00 | 45 | 1014.4 |
| 20260505010258 | 68 | 93 | 2.6 | 3.5 | 0.00 | 0.00 | 0.00 | 45 | 1014.5 |
| 20260505005754 | 68 | 107 | 1.7 | 4.3 | 0.00 | 0.00 | 0.00 | 45 | 1014.5 |
| 20260505005252 | 67 | 93 | 0.9 | 2.6 | 0.00 | 0.00 | 0.00 | 46 | 1014.4 |
| 20260505004749 | 68 | 95 | 1.7 | 2.6 | 0.00 | 0.00 | 0.00 | 45 | 1014.3 |
| 20260505004245 | 68 | 70 | 1.7 | 2.6 | 0.00 | 0.00 | 0.00 | 45 | 1014.4 |
| 20260505003742 | 69 | 122 | 1.7 | 3.5 | 0.00 | 0.00 | 0.00 | 43 | 1014.2 |
| 20260505003240 | 69 | 84 | 0.9 | 3.5 | 0.00 | 0.00 | 0.00 | 43 | 1014.3 |
| 20260505002736 | 69 | 86 | 2.6 | 2.6 | 0.00 | 0.00 | 0.00 | 43 | 1014.4 |
| 20260505002234 | 69 | 83 | 1.7 | 2.6 | 0.00 | 0.00 | 0.00 | 42 | 1014.1 |
| 20260505001731 | 70 | 105 | 1.7 | 2.6 | 0.00 | 0.00 | 0.00 | 41 | 1014.0 |
| 20260505001229 | 71 | 93 | 1.7 | 2.6 | 0.00 | 0.00 | 0.00 | 40 | 1014.0 |
| 20260505000725 | 71 | 82 | 2.6 | 3.5 | 0.00 | 0.00 | 0.00 | 39 | 1014.0 |
| 20260505000226 | 71 | 104 | 1.7 | 2.6 | 0.00 | 0.00 | 0.00 | 39 | 1013.9 |
| 20260504235719 | 72 | 112 | 1.7 | 2.6 | 0.00 | 0.00 | 0.00 | 38 | 1013.9 |
| 20260504235215 | 72 | 83 | 0.9 | 3.5 | 0.00 | 0.00 | 0.00 | 38 | 1014.0 |
| 20260504234713 | 73 | 87 | 3.5 | 3.5 | 0.00 | 0.00 | 0.00 | 37 | 1013.7 |
| 20260504234210 | 73 | 99 | 1.7 | 3.5 | 0.00 | 0.00 | 0.00 | 36 | 1013.8 |
| 20260504233706 | 74 | 84 | 2.6 | 2.6 | 0.00 | 0.00 | 0.00 | 36 | 1013.7 |
| 20260504233202 | 75 | 122 | 1.7 | 2.6 | 0.00 | 0.00 | 0.00 | 33 | 1013.5 |
| 20260504232700 | 75 | 116 | 0.9 | 3.5 | 0.00 | 0.00 | 0.00 | 33 | 1013.7 |
| 20260504232156 | 76 | 146 | 1.7 | 4.3 | 0.00 | 0.00 | 0.00 | 32 | 1013.5 |
| 20260504231653 | 76 | 126 | 3.5 | 3.5 | 0.00 | 0.00 | 0.00 | 30 | 1013.4 |
| 20260504231150 | 76 | 151 | 3.5 | 7.0 | 0.00 | 0.00 | 0.00 | 30 | 1013.6 |
| 20260504230646 | 76 | 111 | 2.6 | 6.1 | 0.00 | 0.00 | 0.00 | 30 | 1013.6 |
| 20260504230145 | 77 | 134 | 4.3 | 9.6 | 0.00 | 0.00 | 0.00 | 29 | 1013.6 |
| 20260504225643 | 78 | 122 | 4.3 | 5.2 | 0.00 | 0.00 | 0.00 | 28 | 1013.7 |
| 20260504225138 | 79 | 133 | 2.6 | 3.5 | 0.00 | 0.00 | 0.00 | 29 | 1013.4 |
| 20260504224635 | 79 | 142 | 2.6 | 5.2 | 0.00 | 0.00 | 0.00 | 29 | 1013.7 |
| 20260504224132 | 79 | 134 | 2.6 | 5.2 | 0.00 | 0.00 | 0.00 | 29 | 1013.6 |
| 20260504223629 | 79 | 112 | 2.6 | 6.1 | 0.00 | 0.00 | 0.00 | 29 | 1013.7 |
| 20260504223125 | 79 | 121 | 1.7 | 7.8 | 0.00 | 0.00 | 0.00 | 30 | 1013.7 |
| 20260504222622 | 78 | 115 | 2.6 | 10.4 | 0.00 | 0.00 | 0.00 | 29 | 1013.6 |
| 20260504222120 | 79 | 187 | 2.6 | 7.0 | 0.00 | 0.00 | 0.00 | 29 | 1013.7 |
| 20260504221616 | 79 | 106 | 2.6 | 10.4 | 0.00 | 0.00 | 0.00 | 29 | 1013.6 |
| 20260504221114 | 79 | 82 | 2.6 | 3.5 | 0.00 | 0.00 | 0.00 | 28 | 1013.5 |
| 20260504220610 | 79 | 134 | 4.3 | 8.7 | 0.00 | 0.00 | 0.00 | 29 | 1013.6 |
| 20260504220108 | 79 | 163 | 7.0 | 7.8 | 0.00 | 0.00 | 0.00 | 29 | 1013.7 |
| 20260504215603 | 79 | 144 | 4.3 | 7.8 | 0.00 | 0.00 | 0.00 | 29 | 1013.7 |
| 20260504215101 | 80 | 162 | 6.1 | 7.0 | 0.00 | 0.00 | 0.00 | 29 | 1013.5 |
| 20260504214557 | 79 | 174 | 7.8 | 9.6 | 0.00 | 0.00 | 0.00 | 29 | 1013.8 |
| 20260504214053 | 80 | 129 | 5.2 | 7.0 | 0.00 | 0.00 | 0.00 | 29 | 1013.7 |
| 20260504213550 | 79 | 140 | 2.6 | 6.1 | 0.00 | 0.00 | 0.00 | 31 | 1013.8 |
| 20260504213047 | 80 | 108 | 6.1 | 9.6 | 0.00 | 0.00 | 0.00 | 29 | 1013.8 |
| 20260504212543 | 80 | 136 | 3.5 | 5.2 | 0.00 | 0.00 | 0.00 | 28 | 1013.9 |
| 20260504212040 | 80 | 140 | 7.0 | 8.7 | 0.00 | 0.00 | 0.00 | 29 | 1013.7 |
| 20260504211537 | 80 | 148 | 3.5 | 7.8 | 0.00 | 0.00 | 0.00 | 29 | 1013.6 |
| 20260504211034 | 80 | 175 | 5.2 | 9.6 | 0.00 | 0.00 | 0.00 | 29 | 1013.6 |
| 20260504210531 | 80 | 107 | 3.5 | 7.8 | 0.00 | 0.00 | 0.00 | 30 | 1013.7 |
| 20260504210027 | 80 | 140 | 4.3 | 7.0 | 0.00 | 0.00 | 0.00 | 30 | 1013.9 |
| 20260504205526 | 79 | 117 | 1.7 | 5.2 | 0.00 | 0.00 | 0.00 | 32 | 1013.8 |
| 20260504205023 | 79 | 102 | 2.6 | 7.8 | 0.00 | 0.00 | 0.00 | 29 | 1013.7 |
| 20260504204521 | 79 | 146 | 5.2 | 7.8 | 0.00 | 0.00 | 0.00 | 30 | 1014.0 |
| 20260504204020 | 80 | 149 | 7.0 | 7.0 | 0.00 | 0.00 | 0.00 | 29 | 1014.0 |
| 20260504203518 | 79 | 214 | 2.6 | 11.3 | 0.00 | 0.00 | 0.00 | 28 | 1014.1 |
| 20260504203015 | 79 | 110 | 1.7 | 13.0 | 0.00 | 0.00 | 0.00 | 32 | 1014.0 |
| 20260504202510 | 79 | 182 | 4.3 | 7.0 | 0.00 | 0.00 | 0.00 | 31 | 1014.2 |
| 20260504202007 | 79 | 193 | 2.6 | 7.0 | 0.00 | 0.00 | 0.00 | 33 | 1014.2 |
| 20260504201504 | 79 | 148 | 4.3 | 7.8 | 0.00 | 0.00 | 0.00 | 32 | 1014.2 |
| 20260504201002 | 79 | 131 | 3.5 | 8.7 | 0.00 | 0.00 | 0.00 | 32 | 1014.1 |
| 20260504200458 | 78 | 137 | 9.6 | 9.6 | 0.00 | 0.00 | 0.00 | 30 | 1014.3 |
| 20260504195955 | 78 | 173 | 4.3 | 12.2 | 0.00 | 0.00 | 0.00 | 30 | 1014.2 |
| 20260504195451 | 78 | 183 | 7.0 | 12.2 | 0.00 | 0.00 | 0.00 | 31 | 1014.2 |
| 20260504194948 | 78 | 204 | 4.3 | 12.2 | 0.00 | 0.00 | 0.00 | 31 | 1014.3 |
| 20260504194444 | 78 | 184 | 6.1 | 6.1 | 0.00 | 0.00 | 0.00 | 31 | 1014.4 |
| 20260504193940 | 77 | 196 | 4.3 | 7.8 | 0.00 | 0.00 | 0.00 | 33 | 1014.6 |
| 20260504193437 | 78 | 146 | 9.6 | 13.9 | 0.00 | 0.00 | 0.00 | 30 | 1014.7 |
| 20260504192936 | 78 | 174 | 5.2 | 11.3 | 0.00 | 0.00 | 0.00 | 31 | 1014.7 |
| 20260504192432 | 77 | 168 | 4.3 | 9.6 | 0.00 | 0.00 | 0.00 | 31 | 1014.6 |
| 20260504191932 | 77 | 142 | 6.1 | 9.6 | 0.00 | 0.00 | 0.00 | 30 | 1014.6 |
| 20260504191430 | 77 | 150 | 2.6 | 9.6 | 0.00 | 0.00 | 0.00 | 29 | 1014.6 |
| 20260504190930 | 77 | 124 | 4.3 | 8.7 | 0.00 | 0.00 | 0.00 | 30 | 1014.6 |
| 20260504190425 | 77 | 139 | 8.7 | 9.6 | 0.00 | 0.00 | 0.00 | 31 | 1014.8 |
| 20260504185923 | 77 | 174 | 5.2 | 7.8 | 0.00 | 0.00 | 0.00 | 32 | 1014.9 |
| 20260504185420 | 77 | 118 | 7.8 | 14.8 | 0.00 | 0.00 | 0.00 | 31 | 1014.9 |
| 20260504184915 | 76 | 151 | 5.2 | 5.2 | 0.00 | 0.00 | 0.00 | 32 | 1014.8 |
| 20260504184411 | 75 | 150 | 5.2 | 6.1 | 0.00 | 0.00 | 0.00 | 30 | 1015.0 |
| 20260504183908 | 76 | 208 | 1.7 | 8.7 | 0.00 | 0.00 | 0.00 | 32 | 1014.8 |
| 20260504183405 | 77 | 134 | 4.3 | 8.7 | 0.00 | 0.00 | 0.00 | 33 | 1015.1 |
| 20260504182903 | 77 | 137 | 1.7 | 10.4 | 0.00 | 0.00 | 0.00 | 30 | 1015.1 |
| 20260504182400 | 76 | 119 | 2.6 | 5.2 | 0.00 | 0.00 | 0.00 | 32 | 1015.3 |
| 20260504181856 | 75 | 84 | 3.5 | 8.7 | 0.00 | 0.00 | 0.00 | 31 | 1015.2 |
| 20260504181354 | 75 | 153 | 5.2 | 9.6 | 0.00 | 0.00 | 0.00 | 30 | 1015.3 |
| 20260504180853 | 76 | 157 | 6.1 | 10.4 | 0.00 | 0.00 | 0.00 | 31 | 1015.4 |
| 20260504180351 | 75 | 120 | 3.5 | 7.0 | 0.00 | 0.00 | 0.00 | 31 | 1015.3 |
| 20260504175849 | 75 | 104 | 3.5 | 11.3 | 0.00 | 0.00 | 0.00 | 33 | 1015.3 |
| 20260504175345 | 75 | 140 | 5.2 | 13.0 | 0.00 | 0.00 | 0.00 | 34 | 1015.3 |
| 20260504174843 | 75 | 76 | 2.6 | 7.8 | 0.00 | 0.00 | 0.00 | 36 | 1015.6 |
| 20260504174341 | 75 | 126 | 5.2 | 7.8 | 0.00 | 0.00 | 0.00 | 33 | 1015.6 |
| 20260504173837 | 74 | 129 | 4.3 | 10.4 | 0.00 | 0.00 | 0.00 | 33 | 1015.5 |
| 20260504173334 | 75 | 238 | 6.1 | 10.4 | 0.00 | 0.00 | 0.00 | 33 | 1015.7 |
| 20260504172831 | 75 | 146 | 4.3 | 7.0 | 0.00 | 0.00 | 0.00 | 35 | 1015.7 |
| 20260504172328 | 75 | 132 | 5.2 | 7.0 | 0.00 | 0.00 | 0.00 | 34 | 1015.8 |
| 20260504171824 | 74 | 285 | 0.0 | 4.3 | 0.00 | 0.00 | 0.00 | 36 | 1015.9 |
| 20260504171321 | 74 | 172 | 7.8 | 12.2 | 0.00 | 0.00 | 0.00 | 34 | 1016.0 |
| 20260504170818 | 74 | 154 | 6.1 | 9.6 | 0.00 | 0.00 | 0.00 | 36 | 1016.2 |
| 20260504170315 | 73 | 138 | 0.0 | 4.3 | 0.00 | 0.00 | 0.00 | 40 | 1016.1 |
| 20260504160233 | 71 | 54 | 6.1 | 8.7 | 0.00 | 0.00 | 0.00 | 45 | 1016.7 |
| 20260504150658 | 69 | 169 | 7.8 | 9.6 | 0.00 | 0.00 | 0.00 | 48 | 1017.3 |
| 20260504150155 | 68 | 170 | 5.2 | 7.8 | 0.00 | 0.00 | 0.00 | 51 | 1017.1 |
| 20260504141124 | 64 | 152 | 1.7 | 4.3 | 0.00 | 0.00 | 0.00 | 60 | 1017.4 |
| 20260504140621 | 64 | 153 | 4.3 | 7.8 | 0.00 | 0.00 | 0.00 | 58 | 1017.4 |
| 20260504140117 | 64 | 152 | 4.3 | 7.0 | 0.00 | 0.00 | 0.00 | 60 | 1017.4 |
| 20260504130545 | 58 | 115 | 2.6 | 4.3 | 0.00 | 0.00 | 0.00 | 71 | 1017.8 |
| 20260504110432 | 47 | 73 | 1.7 | 3.5 | 0.00 | 0.00 | 0.00 | 90 | 1017.8 |
| 20260504100349 | 44 | 85 | 1.7 | 3.5 | 0.00 | 0.00 | 0.00 | 92 | 1017.2 |
| 20260504081742 | 44 | 87 | 1.7 | 1.7 | 0.00 | 0.00 | 0.00 | 81 | 1017.6 |
| 20260504081239 | 45 | 101 | 1.7 | 2.6 | 0.00 | 0.00 | 0.00 | 80 | 1017.7 |
| 20260504080735 | 45 | 93 | 1.7 | 2.6 | 0.00 | 0.00 | 0.00 | 80 | 1017.4 |
| 20260504080232 | 45 | 107 | 1.7 | 2.6 | 0.00 | 0.00 | 0.00 | 80 | 1017.6 |
| 20260504070159 | 46 | 95 | 1.7 | 2.6 | 0.00 | 0.00 | 0.00 | 75 | 1017.6 |
| 20260504060120 | 46 | 107 | 2.6 | 3.5 | 0.00 | 0.00 | 0.00 | 73 | 1017.7 |
| 20260504050548 | 46 | 100 | 1.7 | 2.6 | 0.00 | 0.00 | 0.00 | 75 | 1017.8 |
| 20260504045542 | 45 | 79 | 1.7 | 2.6 | 0.00 | 0.00 | 0.00 | 77 | 1017.7 |
| 20260504045037 | 45 | 103 | 0.9 | 2.6 | 0.00 | 0.00 | 0.00 | 78 | 1017.8 |
| 20260504044535 | 45 | 68 | 1.7 | 2.6 | 0.00 | 0.00 | 0.00 | 79 | 1017.9 |
| 20260504044032 | 45 | 83 | 1.7 | 2.6 | 0.00 | 0.00 | 0.00 | 80 | 1018.1 |
| 20260504043529 | 45 | 68 | 1.7 | 1.7 | 0.00 | 0.00 | 0.00 | 80 | 1017.8 |
| 20260504043026 | 45 | 85 | 1.7 | 3.5 | 0.00 | 0.00 | 0.00 | 80 | 1018.0 |
| 20260504042523 | 46 | 79 | 1.7 | 1.7 | 0.00 | 0.00 | 0.00 | 79 | 1018.1 |
| 20260504042020 | 46 | 100 | 1.7 | 1.7 | 0.00 | 0.00 | 0.00 | 79 | 1017.8 |
| 20260504041516 | 45 | 108 | 1.7 | 2.6 | 0.00 | 0.00 | 0.00 | 79 | 1017.9 |
| 20260504041012 | 45 | 85 | 1.7 | 1.7 | 0.00 | 0.00 | 0.00 | 80 | 1017.9 |
| 20260504040509 | 45 | 83 | 0.9 | 1.7 | 0.00 | 0.00 | 0.00 | 79 | 1017.9 |
| 20260504040006 | 46 | 62 | 0.9 | 2.6 | 0.00 | 0.00 | 0.00 | 79 | 1017.7 |
| 20260504035503 | 46 | 97 | 1.7 | 2.6 | 0.00 | 0.00 | 0.00 | 79 | 1017.9 |
| 20260504034959 | 46 | 84 | 1.7 | 1.7 | 0.00 | 0.00 | 0.00 | 80 | 1018.0 |
| 20260504034457 | 46 | 113 | 0.9 | 2.6 | 0.00 | 0.00 | 0.00 | 79 | 1017.9 |
| 20260504033954 | 46 | 56 | 1.7 | 4.3 | 0.00 | 0.00 | 0.00 | 78 | 1018.0 |
| 20260504033452 | 46 | 86 | 1.7 | 1.7 | 0.00 | 0.00 | 0.00 | 78 | 1017.9 |
| 20260504032949 | 46 | 69 | 1.7 | 1.7 | 0.00 | 0.00 | 0.00 | 77 | 1017.9 |
| 20260504032445 | 46 | 55 | 1.7 | 2.6 | 0.00 | 0.00 | 0.00 | 76 | 1017.8 |
| 20260504031942 | 46 | 63 | 1.7 | 2.6 | 0.00 | 0.00 | 0.00 | 75 | 1017.7 |
| 20260504031439 | 46 | 78 | 1.7 | 1.7 | 0.00 | 0.00 | 0.00 | 74 | 1017.8 |
| 20260504030936 | 47 | 82 | 1.7 | 1.7 | 0.00 | 0.00 | 0.00 | 74 | 1017.9 |
| 20260504030433 | 46 | 97 | 0.9 | 1.7 | 0.00 | 0.00 | 0.00 | 76 | 1017.8 |
| 20260504025929 | 46 | 98 | 0.9 | 2.6 | 0.00 | 0.00 | 0.00 | 78 | 1017.7 |
| 20260504025426 | 46 | 86 | 1.7 | 2.6 | 0.00 | 0.00 | 0.00 | 78 | 1017.5 |
| 20260504024923 | 46 | 90 | 1.7 | 1.7 | 0.00 | 0.00 | 0.00 | 77 | 1017.7 |
| 20260504024420 | 46 | 55 | 1.7 | 2.6 | 0.00 | 0.00 | 0.00 | 78 | 1017.6 |
| 20260504023917 | 46 | 78 | 0.9 | 2.6 | 0.00 | 0.00 | 0.00 | 78 | 1017.7 |
| 20260504023413 | 47 | 92 | 1.7 | 1.7 | 0.00 | 0.00 | 0.00 | 77 | 1017.8 |
| 20260504022909 | 47 | 95 | 1.7 | 1.7 | 0.00 | 0.00 | 0.00 | 76 | 1017.7 |